Location: Gandikunta
(16.3784°N, 80.8378°E)
Time: 15:43:45
(UTC+00:00)

Helios 1A - Pass Details

Date: 19 May 2025
Orbit: 544 x 570 km, 98.3° (Epoch: 03 June)

Event Time Altitude Azimuth Distance (km) Brightness Sun altitude
Rises 14:27:58 0° 22° (NNE) 2,751 6.5 -19.7°
Reaches altitude 10° 14:30:13 10° 30° (NNE) 1,850 5.5 -20.2°
Enters shadow 14:32:13 25° 48° (NE) 1,135 4.2 -20.6°
